Time,TemperatureF,DewpointF,PressureIn,WindDirection,WindDirectionDegrees,WindSpeedMPH,WindSpeedGustMPH,Humidity,HourlyPrecipIn,Conditions,Clouds,dailyrainin,SoftwareType,DateUTC
2014-08-23 00:00:00,73.5,72.6,29.93,WSW,241,8.0,8.0,97,0.10,,,0.10,Wunderground v.1.15,2014-08-23 04:00:00,
2014-08-23 00:05:00,73.5,72.9,29.93,West,263,8.0,9.0,98,0.08,,,0.11,Wunderground v.1.15,2014-08-23 04:05:00,
2014-08-23 00:10:00,73.8,73.5,29.93,WSW,242,8.0,8.0,99,0.10,,,0.01,Wunderground v.1.15,2014-08-23 04:10:00,
2014-08-23 00:15:00,73.9,73.9,29.92,WSW,257,9.0,9.0,100,0.10,,,0.01,Wunderground v.1.15,2014-08-23 04:15:00,
2014-08-23 00:20:00,74.0,74.0,29.91,West,279,9.0,12.0,100,0.07,,,0.02,Wunderground v.1.15,2014-08-23 04:20:00,
2014-08-23 00:30:00,73.9,73.9,29.91,WSW,247,7.0,7.0,100,0.10,,,0.03,Wunderground v.1.15,2014-08-23 04:30:00,
2014-08-23 00:35:00,73.8,73.8,29.91,WSW,240,5.0,7.0,100,0.06,,,0.04,Wunderground v.1.15,2014-08-23 04:35:00,
2014-08-23 00:40:00,73.7,73.7,29.91,WSW,253,4.0,4.0,100,0.09,,,0.04,Wunderground v.1.15,2014-08-23 04:40:00,
2014-08-23 00:45:00,73.7,73.7,29.91,SW,229,3.0,4.0,100,0.09,,,0.05,Wunderground v.1.15,2014-08-23 04:45:00,
2014-08-23 00:50:00,73.6,73.6,29.91,SSW,192,2.0,3.0,100,0.06,,,0.06,Wunderground v.1.15,2014-08-23 04:50:00,
2014-08-23 00:55:00,73.5,73.5,29.91,SSW,206,2.0,3.0,100,0.06,,,0.06,Wunderground v.1.15,2014-08-23 04:55:00,
2014-08-23 01:00:00,73.4,73.4,29.91,SW,219,2.0,3.0,100,0.09,,,0.07,Wunderground v.1.15,2014-08-23 05:00:00,
2014-08-23 01:05:00,73.4,73.4,29.91,SW,221,2.0,3.0,100,0.07,,,0.07,Wunderground v.1.15,2014-08-23 05:05:00,
2014-08-23 01:15:00,73.2,73.2,29.90,WSW,240,0.0,1.0,100,0.08,,,0.09,Wunderground v.1.15,2014-08-23 05:15:00,
2014-08-23 01:20:00,73.2,73.2,29.90,WSW,240,0.0,0.0,100,0.08,,,0.09,Wunderground v.1.15,2014-08-23 05:20:00,
2014-08-23 01:25:00,73.2,73.2,29.90,WSW,240,0.0,0.0,100,0.05,,,0.09,Wunderground v.1.15,2014-08-23 05:25:00,
2014-08-23 01:35:00,73.4,73.4,29.90,WSW,244,0.0,0.0,100,0.08,,,0.11,Wunderground v.1.15,2014-08-23 05:35:00,
2014-08-23 01:40:00,73.3,73.3,29.90,WSW,246,0.0,0.0,100,0.08,,,0.11,Wunderground v.1.15,2014-08-23 05:40:00,
2014-08-23 01:45:00,73.3,73.3,29.90,WSW,242,0.0,0.0,100,0.05,,,0.12,Wunderground v.1.15,2014-08-23 05:45:00,
2014-08-23 01:50:00,73.2,73.2,29.89,WSW,242,0.0,0.0,100,0.05,,,0.12,Wunderground v.1.15,2014-08-23 05:50:00,
2014-08-23 02:00:00,73.1,73.1,29.89,WSW,242,0.0,0.0,100,0.07,,,0.13,Wunderground v.1.15,2014-08-23 06:00:00,
2014-08-23 02:05:00,73.2,73.2,29.89,WSW,242,0.0,0.0,100,0.05,,,0.14,Wunderground v.1.15,2014-08-23 06:05:00,
2014-08-23 02:10:00,73.0,73.0,29.89,WSW,242,0.0,0.0,100,0.05,,,0.14,Wunderground v.1.15,2014-08-23 06:10:00,
2014-08-23 02:20:00,72.7,72.7,29.88,SSE,166,0.0,0.0,100,0.07,,,0.15,Wunderground v.1.15,2014-08-23 06:20:00,
2014-08-23 02:25:00,72.6,72.6,29.88,SSE,166,0.0,0.0,100,0.05,,,0.16,Wunderground v.1.15,2014-08-23 06:25:00,
2014-08-23 02:30:00,72.6,72.6,29.88,SSE,166,0.0,0.0,100,0.05,,,0.16,Wunderground v.1.15,2014-08-23 06:30:00,
2014-08-23 02:35:00,72.6,72.6,29.88,SSE,167,0.0,0.0,100,0.07,,,0.17,Wunderground v.1.15,2014-08-23 06:35:00,
2014-08-23 02:45:00,72.3,72.3,29.88,SSE,166,0.0,0.0,100,0.05,,,0.18,Wunderground v.1.15,2014-08-23 06:45:00,
2014-08-23 02:50:00,72.1,72.1,29.87,SE,136,0.0,1.0,100,0.05,,,0.18,Wunderground v.1.15,2014-08-23 06:50:00,
2014-08-23 02:55:00,72.0,72.0,29.87,SE,136,0.0,1.0,100,0.07,,,0.19,Wunderground v.1.15,2014-08-23 06:55:00,
2014-08-23 03:05:00,71.9,71.9,29.87,SE,136,0.0,0.0,100,0.05,,,0.20,Wunderground v.1.15,2014-08-23 07:05:00,
2014-08-23 03:10:00,71.9,71.9,29.86,SE,136,0.0,0.0,100,0.05,,,0.20,Wunderground v.1.15,2014-08-23 07:10:00,
2014-08-23 03:15:00,71.9,71.9,29.87,SE,136,0.0,0.0,100,0.07,,,0.21,Wunderground v.1.15,2014-08-23 07:15:00,
2014-08-23 03:25:00,71.7,71.7,29.87,SE,136,0.0,0.0,100,0.05,,,0.22,Wunderground v.1.15,2014-08-23 07:25:00,
2014-08-23 03:30:00,71.7,71.7,29.86,SE,136,0.0,0.0,100,0.05,,,0.22,Wunderground v.1.15,2014-08-23 07:30:00,
2014-08-23 03:35:00,71.8,71.8,29.86,SE,136,0.0,0.0,100,0.07,,,0.23,Wunderground v.1.15,2014-08-23 07:35:00,
2014-08-23 03:40:00,72.0,72.0,29.86,SE,136,0.0,0.0,100,0.07,,,0.23,Wunderground v.1.15,2014-08-23 07:40:00,
2014-08-23 03:50:00,72.0,72.0,29.86,SE,136,0.0,0.0,100,0.05,,,0.24,Wunderground v.1.15,2014-08-23 07:50:00,
2014-08-23 03:55:00,71.9,71.9,29.86,SE,136,0.0,0.0,100,0.08,,,0.25,Wunderground v.1.15,2014-08-23 07:55:00,
2014-08-23 04:00:00,71.8,71.8,29.86,SE,136,0.0,0.0,100,0.07,,,0.25,Wunderground v.1.15,2014-08-23 08:00:00,
2014-08-23 04:10:00,71.4,71.4,29.86,SE,136,0.0,0.0,100,0.05,,,0.26,Wunderground v.1.15,2014-08-23 08:10:00,
2014-08-23 04:15:00,71.3,71.3,29.86,SE,136,0.0,0.0,100,0.08,,,0.27,Wunderground v.1.15,2014-08-23 08:15:00,
2014-08-23 04:20:00,71.3,71.3,29.86,SE,136,0.0,0.0,100,0.06,,,0.27,Wunderground v.1.15,2014-08-23 08:20:00,
2014-08-23 04:25:00,71.2,71.2,29.86,ENE,75,1.0,1.0,100,0.06,,,0.28,Wunderground v.1.15,2014-08-23 08:25:00,
2014-08-23 04:35:00,71.1,71.1,29.86,NE,37,1.0,1.0,100,0.07,,,0.29,Wunderground v.1.15,2014-08-23 08:35:00,
2014-08-23 04:40:00,71.2,71.2,29.86,ENE,71,1.0,1.0,100,0.06,,,0.29,Wunderground v.1.15,2014-08-23 08:40:00,
2014-08-23 04:45:00,71.1,71.1,29.86,NE,53,2.0,2.0,100,0.06,,,0.30,Wunderground v.1.15,2014-08-23 08:45:00,
2014-08-23 04:55:00,71.0,71.0,29.86,ENE,61,1.0,2.0,100,0.08,,,0.31,Wunderground v.1.15,2014-08-23 08:55:00,
2014-08-23 05:00:00,71.0,71.0,29.86,ENE,59,1.0,1.0,100,0.06,,,0.32,Wunderground v.1.15,2014-08-23 09:00:00,
2014-08-23 05:05:00,71.0,71.0,29.86,ENE,62,0.0,1.0,100,0.06,,,0.32,Wunderground v.1.15,2014-08-23 09:05:00,
2014-08-23 05:10:00,71.1,71.1,29.87,ENE,62,0.0,0.0,100,0.08,,,0.33,Wunderground v.1.15,2014-08-23 09:10:00,
2014-08-23 05:20:00,71.4,71.4,29.87,ENE,63,0.0,0.0,100,0.06,,,0.34,Wunderground v.1.15,2014-08-23 09:20:00,
2014-08-23 05:25:00,71.5,71.5,29.86,ENE,63,0.0,0.0,100,0.09,,,0.35,Wunderground v.1.15,2014-08-23 09:25:00,
2014-08-23 05:30:00,71.6,71.6,29.87,ENE,63,0.0,0.0,100,0.08,,,0.35,Wunderground v.1.15,2014-08-23 09:30:00,
2014-08-23 05:40:00,71.7,71.7,29.87,ENE,63,0.0,0.0,100,0.09,,,0.37,Wunderground v.1.15,2014-08-23 09:40:00,
2014-08-23 05:45:00,71.6,71.6,29.87,ENE,63,0.0,0.0,100,0.09,,,0.37,Wunderground v.1.15,2014-08-23 09:45:00,
2014-08-23 05:50:00,71.6,71.6,29.87,ENE,62,0.0,0.0,100,0.06,,,0.38,Wunderground v.1.15,2014-08-23 09:50:00,
2014-08-23 06:00:00,72.0,72.0,29.87,ENE,63,0.0,0.0,100,0.09,,,0.39,Wunderground v.1.15,2014-08-23 10:00:00,
2014-08-23 06:05:00,72.2,72.2,29.87,ENE,63,0.0,0.0,100,0.06,,,0.40,Wunderground v.1.15,2014-08-23 10:05:00,
2014-08-23 06:10:00,72.2,72.2,29.87,ENE,63,0.0,0.0,100,0.06,,,0.40,Wunderground v.1.15,2014-08-23 10:10:00,
2014-08-23 06:15:00,72.0,72.0,29.87,ENE,60,0.0,0.0,100,0.09,,,0.41,Wunderground v.1.15,2014-08-23 10:15:00,
2014-08-23 06:25:00,71.9,71.9,29.87,NE,47,0.0,0.0,100,0.06,,,0.42,Wunderground v.1.15,2014-08-23 10:25:00,
2014-08-23 06:30:00,71.8,71.8,29.87,ENE,63,0.0,0.0,100,0.10,,,0.43,Wunderground v.1.15,2014-08-23 10:30:00,
2014-08-23 06:35:00,71.8,71.8,29.87,ENE,63,0.0,0.0,100,0.07,,,0.43,Wunderground v.1.15,2014-08-23 10:35:00,
2014-08-23 06:40:00,71.9,71.9,29.88,ENE,63,0.0,0.0,100,0.07,,,0.44,Wunderground v.1.15,2014-08-23 10:40:00,
2014-08-23 06:50:00,71.9,71.9,29.88,ENE,63,0.0,0.0,100,0.08,,,0.45,Wunderground v.1.15,2014-08-23 10:50:00,
2014-08-23 06:55:00,71.8,71.8,29.88,ENE,63,0.0,0.0,100,0.07,,,0.46,Wunderground v.1.15,2014-08-23 10:55:00,
2014-08-23 07:00:00,71.7,71.7,29.88,ENE,63,0.0,0.0,100,0.10,,,0.47,Wunderground v.1.15,2014-08-23 11:00:00,
2014-08-23 07:10:00,71.9,71.9,29.88,ENE,63,0.0,0.0,100,0.07,,,0.48,Wunderground v.1.15,2014-08-23 11:10:00,
2014-08-23 07:15:00,71.9,71.9,29.88,ENE,63,0.0,0.0,100,0.10,,,0.49,Wunderground v.1.15,2014-08-23 11:15:00,
2014-08-23 07:20:00,71.9,71.9,29.88,NE,49,0.0,0.0,100,0.08,,,0.49,Wunderground v.1.15,2014-08-23 11:20:00,
2014-08-23 07:30:00,72.1,72.1,29.89,NE,46,1.0,1.0,100,0.10,,,0.51,Wunderground v.1.15,2014-08-23 11:30:00,
2014-08-23 07:35:00,72.2,72.2,29.89,NNE,13,0.0,1.0,100,0.08,,,0.51,Wunderground v.1.15,2014-08-23 11:35:00,
2014-08-23 07:40:00,72.2,72.2,29.89,NE,55,0.0,1.0,100,0.07,,,0.52,Wunderground v.1.15,2014-08-23 11:40:00,
2014-08-23 07:50:00,72.4,72.4,29.89,ENE,65,0.0,0.0,100,0.07,,,0.53,Wunderground v.1.15,2014-08-23 11:50:00,
2014-08-23 07:55:00,72.5,72.5,29.89,ENE,66,0.0,0.0,100,0.07,,,0.54,Wunderground v.1.15,2014-08-23 11:55:00,
2014-08-23 08:00:00,72.6,72.6,29.89,ENE,60,1.0,1.0,100,0.10,,,0.55,Wunderground v.1.15,2014-08-23 12:00:00,
2014-08-23 08:05:00,72.6,72.6,29.89,NE,39,1.0,1.0,100,0.07,,,0.55,Wunderground v.1.15,2014-08-23 12:05:00,
2014-08-23 08:15:00,72.8,72.8,29.89,NNE,26,0.0,1.0,100,0.09,,,0.57,Wunderground v.1.15,2014-08-23 12:15:00,
2014-08-23 08:20:00,72.9,72.9,29.89,NNE,26,0.0,0.0,100,0.07,,,0.57,Wunderground v.1.15,2014-08-23 12:20:00,
2014-08-23 08:25:00,73.0,73.0,29.89,NNW,333,0.0,1.0,100,0.07,,,0.58,Wunderground v.1.15,2014-08-23 12:25:00,
2014-08-23 08:35:00,73.0,73.0,29.90,NNE,20,2.0,3.0,100,0.08,,,0.59,Wunderground v.1.15,2014-08-23 12:35:00,
2014-08-23 08:40:00,73.0,73.0,29.90,North,355,1.0,1.0,100,0.07,,,0.60,Wunderground v.1.15,2014-08-23 12:40:00,
2014-08-23 08:45:00,73.0,73.0,29.90,NNW,330,1.0,3.0,100,0.08,,,0.61,Wunderground v.1.15,2014-08-23 12:45:00,
2014-08-23 08:55:00,73.0,73.0,29.90,NNW,337,2.0,2.0,100,0.07,,,0.62,Wunderground v.1.15,2014-08-23 12:55:00,
2014-08-23 09:00:00,73.3,73.3,29.89,NNW,346,1.0,1.0,100,0.07,,,0.62,Wunderground v.1.15,2014-08-23 13:00:00,
2014-08-23 09:05:00,73.3,73.3,29.89,NNE,22,1.0,1.0,100,0.08,,,0.63,Wunderground v.1.15,2014-08-23 13:05:00,
2014-08-23 09:10:00,73.6,73.6,29.89,North,355,1.0,1.0,100,0.07,,,0.64,Wunderground v.1.15,2014-08-23 13:10:00,
2014-08-23 09:20:00,73.8,73.8,29.89,NNE,29,0.0,0.0,100,0.08,,,0.65,Wunderground v.1.15,2014-08-23 13:20:00,
2014-08-23 09:25:00,74.0,74.0,29.89,NW,313,0.0,0.0,100,0.07,,,0.65,Wunderground v.1.15,2014-08-23 13:25:00,
2014-08-23 09:30:00,74.2,74.2,29.89,NNE,27,1.0,1.0,100,0.06,,,0.66,Wunderground v.1.15,2014-08-23 13:30:00,
2014-08-23 09:40:00,75.1,75.1,29.89,NNE,24,1.0,2.0,100,0.07,,,0.67,Wunderground v.1.15,2014-08-23 13:40:00,
2014-08-23 09:45:00,75.5,75.5,29.90,NE,42,1.0,2.0,100,0.06,,,0.67,Wunderground v.1.15,2014-08-23 13:45:00,
2014-08-23 09:50:00,75.1,75.1,29.90,NNW,345,1.0,1.0,100,0.06,,,0.68,Wunderground v.1.15,2014-08-23 13:50:00,
2014-08-23 09:55:00,75.2,75.2,29.89,NE,53,2.0,2.0,100,0.10,,,0.69,Wunderground v.1.15,2014-08-23 13:55:00,
2014-08-23 10:05:00,76.7,76.7,29.90,NE,52,1.0,2.0,100,0.06,,,0.70,Wunderground v.1.15,2014-08-23 14:05:00,
2014-08-23 10:10:00,76.9,76.6,29.90,NE,39,1.0,2.0,99,0.10,,,0.71,Wunderground v.1.15,2014-08-23 14:10:00,
2014-08-23 10:15:00,76.9,76.3,29.91,NE,55,2.0,4.0,98,0.09,,,0.71,Wunderground v.1.15,2014-08-23 14:15:00,
2014-08-23 10:25:00,78.3,76.7,29.91,NE,43,4.0,10.0,95,0.05,,,0.72,Wunderground v.1.15,2014-08-23 14:25:00,
2014-08-23 10:30:00,79.7,77.5,29.91,NE,43,5.0,7.0,93,0.09,,,0.73,Wunderground v.1.15,2014-08-23 14:30:00,
2014-08-23 10:35:00,80.6,76.7,29.91,NE,42,6.0,10.0,88,0.07,,,0.73,Wunderground v.1.15,2014-08-23 14:35:00,
2014-08-23 10:45:00,81.8,76.8,29.91,NE,49,4.0,5.0,85,0.10,,,0.75,Wunderground v.1.15,2014-08-23 14:45:00,
2014-08-23 10:50:00,82.0,77.0,29.91,NNE,16,3.0,3.0,85,0.08,,,0.75,Wunderground v.1.15,2014-08-23 14:50:00,
2014-08-23 10:55:00,82.3,77.3,29.91,ENE,66,4.0,9.0,85,0.06,,,0.76,Wunderground v.1.15,2014-08-23 14:55:00,
2014-08-23 11:00:00,82.5,77.2,29.91,NE,41,7.0,9.0,84,0.09,,,0.77,Wunderground v.1.15,2014-08-23 15:00:00,
2014-08-23 11:10:00,82.7,77.0,29.91,NE,55,5.0,6.0,83,0.06,,,0.78,Wunderground v.1.15,2014-08-23 15:10:00,
2014-08-23 11:15:00,82.9,77.6,29.90,NNE,32,5.0,6.0,84,0.08,,,0.79,Wunderground v.1.15,2014-08-23 15:15:00,
2014-08-23 11:20:00,83.3,77.6,29.91,NNE,18,4.0,4.0,83,0.08,,,0.79,Wunderground v.1.15,2014-08-23 15:20:00,
2014-08-23 11:30:00,83.6,77.5,29.90,NNW,337,3.0,3.0,82,0.05,,,0.80,Wunderground v.1.15,2014-08-23 15:30:00,
2014-08-23 11:35:00,83.4,77.3,29.91,ENE,63,4.0,4.0,82,0.08,,,0.81,Wunderground v.1.15,2014-08-23 15:35:00,
2014-08-23 11:40:00,83.6,77.5,29.91,NE,34,5.0,6.0,82,0.08,,,0.81,Wunderground v.1.15,2014-08-23 15:40:00,
2014-08-23 11:50:00,83.7,76.1,29.91,NE,39,5.0,5.0,78,0.06,,,0.82,Wunderground v.1.15,2014-08-23 15:50:00,
2014-08-23 11:55:00,83.9,77.1,29.91,NE,48,4.0,5.0,80,0.08,,,0.83,Wunderground v.1.15,2014-08-23 15:55:00,
2014-08-23 12:00:00,84.1,77.3,29.91,ENE,59,4.0,8.0,80,0.07,,,0.83,Wunderground v.1.15,2014-08-23 16:00:00,
2014-08-23 12:05:00,84.1,76.5,29.91,North,355,5.0,8.0,78,0.05,,,0.84,Wunderground v.1.15,2014-08-23 16:05:00,
2014-08-23 12:15:00,84.4,77.6,29.90,North,360,4.0,5.0,80,0.08,,,0.85,Wunderground v.1.15,2014-08-23 16:15:00,
2014-08-23 12:20:00,84.2,77.4,29.90,NE,38,4.0,9.0,80,0.06,,,0.85,Wunderground v.1.15,2014-08-23 16:20:00,
2014-08-23 12:25:00,84.7,77.8,29.90,North,5,4.0,9.0,80,0.05,,,0.86,Wunderground v.1.15,2014-08-23 16:25:00,
2014-08-23 12:35:00,85.0,77.8,29.90,NE,49,4.0,5.0,79,0.08,,,0.87,Wunderground v.1.15,2014-08-23 16:35:00,
2014-08-23 12:40:00,85.1,77.8,29.90,NNW,338,3.0,7.0,79,0.06,,,0.87,Wunderground v.1.15,2014-08-23 16:40:00,
2014-08-23 12:45:00,85.1,77.5,29.90,ENE,59,3.0,7.0,78,0.05,,,0.88,Wunderground v.1.15,2014-08-23 16:45:00,
2014-08-23 12:55:00,85.8,78.1,29.89,ENE,77,4.0,9.0,78,0.08,,,0.89,Wunderground v.1.15,2014-08-23 16:55:00,
2014-08-23 13:00:00,86.2,78.5,29.89,NE,49,4.0,8.0,78,0.05,,,0.89,Wunderground v.1.15,2014-08-23 17:00:00,
2014-08-23 13:05:00,86.5,78.4,29.89,ENE,65,2.0,8.0,77,0.05,,,0.90,Wunderground v.1.15,2014-08-23 17:05:00,
2014-08-23 13:15:00,86.3,77.8,29.89,NNW,333,5.0,8.0,76,0.07,,,0.91,Wunderground v.1.15,2014-08-23 17:15:00,
2014-08-23 13:20:00,85.7,76.9,29.89,West,271,3.0,3.0,75,0.06,,,0.91,Wunderground v.1.15,2014-08-23 17:20:00,
2014-08-23 13:30:00,85.2,76.8,29.89,North,355,4.0,4.0,76,0.04,,,0.92,Wunderground v.1.15,2014-08-23 17:30:00,
2014-08-23 13:35:00,85.4,78.1,29.89,ENE,59,4.0,4.0,79,0.06,,,0.93,Wunderground v.1.15,2014-08-23 17:35:00,
2014-08-23 13:40:00,85.6,77.9,29.88,NE,53,4.0,4.0,78,0.06,,,0.93,Wunderground v.1.15,2014-08-23 17:40:00,
2014-08-23 13:50:00,85.1,77.8,29.88,NNW,327,3.0,4.0,79,0.04,,,0.93,Wunderground v.1.15,2014-08-23 17:50:00,
2014-08-23 13:55:00,85.0,77.8,29.88,ENE,61,3.0,4.0,79,0.00,,,0.94,Wunderground v.1.15,2014-08-23 17:55:00,
2014-08-23 14:00:00,85.1,78.2,29.88,NNE,12,3.0,3.0,80,0.00,,,0.94,Wunderground v.1.15,2014-08-23 18:00:00,
2014-08-23 14:05:00,85.7,78.8,29.88,ENE,61,3.0,5.0,80,0.00,,,0.94,Wunderground v.1.15,2014-08-23 18:05:00,
2014-08-23 14:15:00,85.5,77.5,29.87,North,360,3.0,4.0,77,0.00,,,0.94,Wunderground v.1.15,2014-08-23 18:15:00,
2014-08-23 14:20:00,85.3,77.7,29.87,NNW,348,2.0,2.0,78,0.00,,,0.94,Wunderground v.1.15,2014-08-23 18:20:00,
2014-08-23 14:25:00,85.7,78.4,29.87,NE,39,3.0,3.0,79,0.00,,,0.94,Wunderground v.1.15,2014-08-23 18:25:00,
2014-08-23 14:35:00,87.2,78.3,29.87,East,84,3.0,8.0,75,0.00,,,0.94,Wunderground v.1.15,2014-08-23 18:35:00,
2014-08-23 14:40:00,88.0,78.7,29.87,NE,39,3.0,4.0,74,0.00,,,0.94,Wunderground v.1.15,2014-08-23 18:40:00,
2014-08-23 14:45:00,88.7,77.7,29.87,NNW,340,4.0,4.0,70,0.00,,,0.94,Wunderground v.1.15,2014-08-23 18:45:00,
2014-08-23 14:55:00,87.8,78.1,29.87,NNW,331,2.0,6.0,73,0.00,,,0.94,Wunderground v.1.15,2014-08-23 18:55:00,
2014-08-23 15:00:00,87.2,77.9,29.86,NNW,340,2.0,2.0,74,0.00,,,0.94,Wunderground v.1.15,2014-08-23 19:00:00,
2014-08-23 15:05:00,87.3,77.6,29.86,NE,52,3.0,3.0,73,0.00,,,0.94,Wunderground v.1.15,2014-08-23 19:05:00,
2014-08-23 15:15:00,88.2,77.6,29.86,ENE,69,1.0,2.0,71,0.00,,,0.94,Wunderground v.1.15,2014-08-23 19:15:00,
2014-08-23 15:20:00,88.8,77.7,29.85,NE,51,2.0,7.0,70,0.00,,,0.94,Wunderground v.1.15,2014-08-23 19:20:00,
2014-08-23 15:30:00,89.9,78.8,29.85,North,10,4.0,4.0,70,0.00,,,0.94,Wunderground v.1.15,2014-08-23 19:30:00,
2014-08-23 15:35:00,90.6,79.5,29.85,East,82,4.0,5.0,70,0.00,,,0.94,Wunderground v.1.15,2014-08-23 19:35:00,
2014-08-23 15:40:00,90.8,78.8,29.85,NNW,348,5.0,5.0,68,0.00,,,0.95,Wunderground v.1.15,2014-08-23 19:40:00,
2014-08-23 15:50:00,89.5,78.8,29.85,NE,53,5.0,5.0,71,0.00,,,0.95,Wunderground v.1.15,2014-08-23 19:50:00,
2014-08-23 15:55:00,90.0,79.3,29.84,NE,46,5.0,5.0,71,0.00,,,0.95,Wunderground v.1.15,2014-08-23 19:55:00,